Station VTBT2 - 8775222 - Viola Turning Basin, TX Image indicating link to RSS feed of recent meteorological observations for station VTBT2


Conditions at VTBT2 as of
(2:18 am CDT)
0718 GMT on 06/24/2024:
     

Click on the graph icon in the table below to see a time series plot of the last five days of that observation.

5-day plot - Wind Direction Wind Direction (WDIR):SSE ( 160 deg true )
5-day plot - Wind Speed Wind Speed (WSPD): 4.1 kts
5-day plot - Wind Gust Wind Gust (GST): 5.1 kts
5-day plot - Atmospheric Pressure Atmospheric Pressure (PRES):29.87 in
5-day plot - Air Temperature Air Temperature (ATMP): 82.6 °F
5-day plot - Water Temperature Water Temperature (WTMP): 87.4 °F
5-day plot - Dew Point Dew Point (DEWP): 79.5 °F
5-day plot - Visibility Visibility (VIS): 5.9 nmi
5-day plot - Heat Index Heat Index (HEAT): 93.6 °F
5-day plot - Wind Speed at 10 Meters Wind Speed at 10 meters (WSPD10M): 3.9 kts
5-day plot - Wind Speed at 20 Meters Wind Speed at 20 meters (WSPD20M): 3.9 kts
5-day plot -  Wind Speed, Wind Gust and Atmospheric Pressure Combined plot of Wind Speed, Gust, and Air Pressure
NOS Water Level Observation Network Water Level
Previous observations
TIME
(CDT)
5-day plot - Wind Direction
WDIR
 
5-day plot - Wind Speed
WSPD
kts
5-day plot - Wind Gust
GST
kts
5-day plot - Wave Height
WVHT
ft
5-day plot - Dominant Wave Period
DPD
sec
5-day plot - Average Wave Period
APD
sec
5-day plot - Mean Wave Direction
MWD
 
5-day plot - Atmospheric Pressure
PRES
in
5-day plot - Pressure Tendency
PTDY
in
5-day plot - Air Temperature
ATMP
°F
5-day plot - Water Temperature
WTMP
°F
5-day plot - Dew Point
DEWP
°F
5-day plot - Salinity
SAL
psu
5-day plot - Visibility
VIS
nmi
5-day plot - Tide (above MLLW)
TIDE
ft
2024-06-24 02:12 am S 2.9 6.0----29.87- 82.8 87.4 79.7- 5.9-
2024-06-24 02:06 amSSE 5.1 6.0----29.87- 82.8 87.4 79.7- 5.9-
2024-06-24 02:00 amSSE 5.1 7.0----29.87- 82.8 87.4 79.7- 5.9-
2024-06-24 01:54 amSSE 5.1 6.0----29.87- 82.8 87.4 79.7- 5.9-
2024-06-24 01:48 amSSE 5.1 7.0----29.87- 82.8 87.4 79.7- 5.9-
2024-06-24 01:42 am SE 6.0 7.0----29.87- 82.6 87.4 79.7- 5.9-
2024-06-24 01:36 amSSE 5.1 7.0----29.88- 82.6 87.4 79.5- 5.9-
2024-06-24 01:30 amSSE 5.1 6.0----29.87- 82.6 87.4 79.5- 5.9-
2024-06-24 01:24 amSSE 4.1 6.0----29.88- 82.6 87.4 79.3- 5.9-
2024-06-24 01:18 amSSE 4.1 5.1----29.88- 82.8 87.4 79.5- 5.9-
2024-06-24 01:12 amSSE 4.1 5.1----29.88- 82.8 87.4 79.5- 5.9-
2024-06-24 01:06 amSSE 4.1 5.1----29.88- 82.8 87.4 79.7- 5.9-
2024-06-24 01:00 amSSE 2.9 6.0----29.88+0.01 82.6 87.4 79.3- 5.9-
2024-06-24 12:54 amSSE 4.1 6.0----29.88- 82.6 87.4 79.2- 5.9-
2024-06-24 12:48 amSSE 6.0 8.0----29.88- 82.8 87.4 79.3- 5.9-
2024-06-24 12:42 amSSE 5.1 6.0----29.88- 82.8 87.4 79.3- 5.9-
2024-06-24 12:36 amSSE 4.1 8.0----29.88- 82.9 87.4 79.5- 5.9-
2024-06-24 12:30 am SE 5.1 8.0----29.88- 82.9 87.4 79.7- 5.9-
2024-06-24 12:24 am SE 6.0 8.0----29.88- 82.8 87.4 79.7- 5.9-
2024-06-24 12:18 amESE 6.0 7.0----29.88- 82.6 87.4 79.3- 5.9-
2024-06-24 12:12 amESE 6.0 7.0----29.88- 82.6 87.4 79.5- 5.9-
2024-06-24 12:06 am SE 4.1 6.0----29.88- 82.6 87.4 79.7- 5.9-
2024-06-24 12:00 amESE 5.1 7.0----29.88+0.03 82.6 87.4 79.5- 5.9-
2024-06-23 11:54 pmESE 7.0 8.9----29.88- 82.8 87.4 79.7- 5.9-
2024-06-23 11:48 pmESE 5.1 7.0----29.88- 82.8 87.4 79.9- 5.9-
2024-06-23 11:42 pmESE 4.1 8.9----29.88- 83.1 87.4 80.2- 5.9-
2024-06-23 11:36 pmESE 5.1 7.0----29.88- 82.8 87.4 79.7- 5.9-
2024-06-23 11:30 pmESE 5.1 6.0----29.88- 82.6 87.4 79.3- 5.9-
2024-06-23 11:24 pmESE 5.1 6.0----29.88- 82.6 87.4 79.3- 5.9-
2024-06-23 11:18 pmESE 6.0 7.0----29.88- 82.6 87.4 79.3- 5.9-
2024-06-23 11:12 pmESE 5.1 6.0----29.88- 82.6 87.4 79.3- 5.9-
2024-06-23 11:06 pmESE 5.1 6.0----29.88- 82.6 87.4 79.3- 5.9-
2024-06-23 10:48 pm E 6.0 7.0----29.88-- 87.4-- 5.9-
2024-06-23 10:42 pm E 6.0 8.0----29.88-- 87.3-- 5.9-
2024-06-23 10:36 pmESE 6.0 7.0----29.87-- 87.6-- 5.9-
2024-06-23 10:30 pmESE 5.1 8.0----29.87- 82.9 87.6 79.0- 5.9-
2024-06-23 10:24 pmESE 5.1 8.0----29.87- 82.8 87.6 79.0- 5.9-
2024-06-23 10:18 pmESE 5.1 8.9----29.87- 82.9 87.6 79.2- 5.9-
2024-06-23 10:12 pmESE 6.0 8.9----29.87- 82.9 87.6 79.2- 5.9-
2024-06-23 10:06 pmESE 6.0 8.0----29.87- 82.8 87.6 79.2- 5.9-
2024-06-23 10:00 pm E 5.1 8.9----29.86+0.03 82.9 87.6 79.3- 5.9-
2024-06-23 09:54 pm E 8.0 9.9----29.86- 83.1 87.8 79.3- 5.9-
2024-06-23 09:48 pm E 8.0 9.9----29.86- 83.1 87.6 79.2- 5.9-
2024-06-23 09:42 pm E 8.0 9.9----29.86- 83.1 87.8 79.0- 5.9-
2024-06-23 09:36 pm E 8.0 9.9----29.85- 83.1 87.8 79.2- 5.9-
2024-06-23 09:30 pm E 8.0 8.9----29.85- 83.1 87.6 79.2- 5.9-
2024-06-23 09:24 pm E 7.0 9.9----29.85- 83.1 87.8 79.0- 5.9-
2024-06-23 09:18 pm E 8.9 9.9----29.85- 83.3 87.8 79.2- 5.9-
2024-06-23 09:12 pm E 7.0 8.9----29.85- 83.1 88.0 79.3- 5.9-
2024-06-23 09:06 pm E 8.0 9.9----29.85- 83.5 88.0 79.7- 5.9-
2024-06-23 09:00 pm E 8.0 11.1----29.85+0.01 83.5 88.0 79.7- 5.9-
2024-06-23 08:54 pm E 8.9 9.9----29.84- 83.5 88.2 79.5- 5.9-
2024-06-23 08:48 pm E 8.0 9.9----29.85-- 88.2-- 5.9-
2024-06-23 08:42 pm E 8.0 12.0----29.85-- 88.2-- 5.9-
2024-06-23 08:36 pm E 8.0 11.1----29.85-- 88.2-- 5.9-
2024-06-23 08:30 pm E 8.9 11.1----29.85----- 5.9-
2024-06-23 08:24 pm E 8.0 11.1----29.85----- 5.9-
2024-06-23 08:18 pmENE 8.9 11.1----29.85- 84.2 88.3 79.2- 5.9-
2024-06-23 08:12 pm E 9.9 12.0----29.85- 84.4 88.2 79.0- 5.9-
2024-06-23 08:06 pm E 11.1 13.0----29.84- 84.6 88.3 78.8- 5.9-
2024-06-23 08:00 pm E 12.0 14.0----29.84+0.00 84.6 88.3 78.8- 5.9-
2024-06-23 07:54 pm E 9.9 13.0----29.84- 84.9 88.5 78.8- 5.9-
2024-06-23 07:48 pm E 9.9 12.0----29.84- 85.3 88.5 78.8- 5.9-
2024-06-23 07:42 pm E 9.9 13.0----29.84- 85.5 88.5 78.4- 5.9-
2024-06-23 07:36 pm E 11.1 13.0----29.84- 85.6 88.5 78.4- 5.9-
2024-06-23 07:30 pm E 11.1 13.0----29.84- 85.6 88.5 78.4- 5.9-
2024-06-23 07:24 pm E 11.1 13.0----29.84- 86.0 88.5 77.9- 5.9-
2024-06-23 07:18 pm E 9.9 13.0----29.84- 86.4 88.5 78.6- 5.9-
2024-06-23 07:12 pm E 9.9 13.0----29.84- 86.2 88.7 78.4- 5.9-
2024-06-23 07:06 pm E 9.9 12.0----29.84- 86.5 88.7 78.6- 5.9-
2024-06-23 07:00 pm E 9.9 13.0----29.84-0.02 86.5 88.7 78.3- 5.9-
2024-06-23 06:54 pm E 11.1 13.0----29.83- 86.5 88.9 78.3- 5.9-
2024-06-23 06:48 pm E 9.9 13.0----29.83- 87.1 88.9 79.0- 5.9-
2024-06-23 06:42 pm E 9.9 13.0----29.83- 87.1 88.7 78.8- 5.9-
2024-06-23 06:36 pm E 12.0 14.0----29.83- 86.5 88.7 78.6- 5.9-
2024-06-23 06:30 pm E 11.1 13.0----29.83- 87.1 88.7 79.3- 5.9-
2024-06-23 06:24 pm E 11.1 14.0----29.83- 86.9 88.5 78.6- 5.9-
2024-06-23 06:18 pm E 11.1 14.0----29.83-- 88.3-- 5.9-
2024-06-23 06:12 pm E 12.0 15.0----29.83-- 88.5-- 5.9-
2024-06-23 06:06 pm E 12.0 17.1----29.83-- 88.5-- 5.9-
2024-06-23 06:00 pm E 12.0 15.9----29.83-0.04---- 5.9-
2024-06-23 05:54 pm E 13.0 15.0----29.83----- 5.9-
2024-06-23 05:48 pm E 11.1 13.0----29.84- 88.0 88.3 79.3- 5.9-
2024-06-23 05:42 pm E 9.9 13.0----29.84- 88.2 88.3 78.8- 5.9-
2024-06-23 05:36 pm E 11.1 14.0----29.83- 88.0 88.3 78.8- 5.9-
2024-06-23 05:30 pmENE 11.1 13.0----29.83- 87.6 88.3 77.7- 5.9-
2024-06-23 05:24 pm E 9.9 14.0----29.84- 88.7 88.3 79.3- 5.9-
2024-06-23 05:18 pmENE 11.1 14.0----29.84-- 88.3-- 5.9-
2024-06-23 05:12 pmENE 11.1 14.0----29.84-- 88.3-- 5.9-
2024-06-23 05:06 pmENE 12.0 15.0----29.84-- 88.5-- 5.9-
2024-06-23 05:00 pmENE 9.9 13.0----29.84-0.05 89.1 88.3 78.8- 5.9-
2024-06-23 04:54 pmENE 9.9 12.0----29.85- 88.5 88.2 78.1- 5.9-
2024-06-23 04:48 pmENE 9.9 13.0----29.85- 88.3 88.0 78.8- 5.9-
2024-06-23 04:42 pmENE 9.9 12.0----29.85- 88.2 87.6 78.4- 5.9-
2024-06-23 04:36 pmENE 11.1 14.0----29.85- 87.3 87.6 77.9- 5.9-
2024-06-23 04:30 pmENE 9.9 13.0----29.85- 87.8 87.6 78.4- 5.9-
2024-06-23 04:24 pmENE 9.9 13.0----29.85- 87.8 88.0 78.3- 5.9-
2024-06-23 04:18 pmENE 12.0 13.0----29.86- 87.4 87.8 78.4- 5.9-
2024-06-23 04:12 pmENE 9.9 13.0----29.86- 87.8 87.4 78.8- 5.9-
2024-06-23 04:06 pmENE 11.1 14.0----29.86- 87.3 87.6 77.9- 5.9-
2024-06-23 04:00 pmENE 11.1 14.0----29.86-0.04 88.3 87.6-- 5.9-
2024-06-23 03:54 pmENE 11.1 14.0----29.86- 88.0 87.8-- 5.9-
2024-06-23 03:48 pmENE 11.1 14.0----29.86- 88.2 86.9 79.0- 5.9-
2024-06-23 03:42 pmENE 11.1 13.0----29.86- 88.2 87.3 78.4- 5.9-
2024-06-23 03:36 pmENE 11.1 13.0----29.86- 88.2 88.3 79.0- 5.9-
2024-06-23 03:30 pmENE 9.9 13.0----29.86- 88.0 87.3 79.0- 5.9-
2024-06-23 03:24 pmENE 11.1 14.0----29.87- 87.6 86.9 78.4- 5.9-
2024-06-23 03:18 pmENE 9.9 14.0----29.87- 88.3 86.9 78.8- 5.9-
2024-06-23 03:12 pmENE 9.9 13.0----29.87- 88.2 87.1 78.3- 5.9-
2024-06-23 03:06 pmENE 11.1 13.0----29.87- 87.3 86.9 78.6- 5.9-
2024-06-23 03:00 pmENE 11.1 14.0----29.87-0.05 87.4 87.3 79.2- 5.9-
2024-06-23 02:54 pmENE 11.1 13.0----29.87- 86.9 87.4 79.3- 5.9-
2024-06-23 02:48 pm NE 11.1 13.0----29.87- 87.1 87.8 79.5- 5.9-
2024-06-23 02:42 pmENE 11.1 13.0----29.88- 86.9 87.1 79.2- 5.9-
2024-06-23 02:36 pmENE 11.1 13.0----29.88- 86.4 87.1 79.3- 5.9-
2024-06-23 02:30 pmENE 11.1 12.0----29.88- 86.4 87.3 79.0- 5.9-
2024-06-23 02:24 pmENE 9.9 13.0----29.88- 87.1 87.1 79.5- 5.9-
2024-06-23 02:18 pmENE 11.1 13.0----29.88- 86.5 87.1 79.3- 5.9-
2024-06-23 02:12 pm NE 9.9 13.0----29.89- 86.0 87.1 79.2- 5.9-
2024-06-23 02:06 pmENE 9.9 13.0----29.89- 86.2 87.1 80.2- 5.9-
2024-06-23 02:00 pmENE 11.1 13.0----29.89-0.03 85.6 86.9 79.3- 5.9-
2024-06-23 01:54 pm NE 9.9 12.0----29.90- 85.5 86.9 79.2- 5.9-
2024-06-23 01:48 pmENE 8.9 12.0----29.90- 85.6 86.7 78.6- 5.9-
2024-06-23 01:42 pmENE 9.9 12.0----29.90- 85.8 86.7 79.2- 5.9-
2024-06-23 01:36 pmENE 8.9 13.0----29.90- 86.2 86.7 80.4- 5.9-
2024-06-23 01:30 pmENE 12.0 13.0----29.90- 85.3 86.7 79.3- 5.9-
2024-06-23 01:24 pm E 9.9 12.0----29.90- 86.5 86.5 79.3- 5.9-
2024-06-23 01:18 pm E 9.9 12.0----29.91- 86.0 86.4 79.5- 5.9-
2024-06-23 01:12 pm E 9.9 12.0----29.91- 85.1 86.5 79.9- 5.9-
2024-06-23 01:06 pm E 9.9 13.0----29.91- 85.5 86.5 80.4- 5.9-
2024-06-23 01:00 pm E 11.1 13.0----29.91-0.01 84.9 86.5 79.9- 5.9-
2024-06-23 12:54 pmENE 11.1 13.0----29.91- 85.3 86.5 79.5- 5.9-
2024-06-23 12:48 pmENE 8.9 13.0----29.91- 86.2 86.4 80.1- 5.9-
2024-06-23 12:42 pmENE 9.9 14.0----29.91- 86.2 86.4 79.5- 5.9-
2024-06-23 12:36 pm E 9.9 13.0----29.91- 85.5 86.5 78.8- 5.9-
2024-06-23 12:30 pm E 12.0 15.0----29.92- 85.5 86.5 79.2- 5.9-
2024-06-23 12:24 pmENE 9.9 13.0----29.92- 86.0 86.5 80.4- 5.9-
2024-06-23 12:18 pm E 12.0 14.0----29.92- 85.3 86.5 79.7- 5.9-
2024-06-23 12:12 pmENE 11.1 13.0----29.92- 85.1 86.5 80.4- 5.9-
2024-06-23 12:06 pmENE 12.0 15.0----29.92- 85.5 86.4 81.5- 5.9-
2024-06-23 12:00 pmENE 13.0 15.9----29.92- 84.7 86.4 81.7- 5.9-
2024-06-23 11:54 amENE 12.0 15.0----29.92- 85.1 86.4 81.9- 5.9-
2024-06-23 11:48 amENE 13.0 15.0----29.92- 85.1 86.4 82.0- 5.9-
2024-06-23 11:42 am NE 11.1 15.0----29.92- 84.4 86.4 82.4- 5.9-
2024-06-23 11:36 amENE 14.0 17.1----29.92- 83.1 86.4 83.1- 5.9-
2024-06-23 11:30 amENE 12.0 13.0----29.92- 82.6 86.4 82.6- 5.9-
2024-06-23 11:24 amESE 5.1 7.0----29.92- 81.3 86.4 81.3- 5.9-
2024-06-23 11:18 am SE 4.1 5.1----29.92- 81.0 86.5 81.0- 5.9-
2024-06-23 11:12 am E 4.1 5.1----29.92- 81.0 86.4 81.0- 5.9-
2024-06-23 11:06 am NE 5.1 8.0----29.92- 80.6 86.4 80.6- 5.9-
2024-06-23 11:00 am NE 8.0 8.9----29.92- 79.2 86.4 79.2- 5.9-
2024-06-23 10:54 amNNE 7.0 18.1----29.92- 79.0 86.4 79.0- 2.6-
2024-06-23 10:48 amENE 21.0 27.0----29.92- 79.3 86.5 79.0- 0.5-
2024-06-23 10:42 am E 12.0 15.9----29.91- 81.0 86.5 79.5- 5.9-
2024-06-23 10:36 amESE 12.0 15.9----29.91- 82.2 86.5 79.0- 5.9-
2024-06-23 10:30 amENE 8.0 11.1----29.91- 84.2 86.4 78.6- 5.9-
2024-06-23 10:24 amENE 7.0 9.9----29.92- 85.1 86.5 78.8- 5.9-
2024-06-23 10:18 am NE 8.0 11.1----29.92-- 86.4-- 5.9-
2024-06-23 10:12 amENE 11.1 12.0----29.92-- 86.4-- 5.9-
2024-06-23 10:06 am NE 8.9 11.1----29.92-- 86.4-- 5.9-
2024-06-23 10:00 am NE 7.0 11.1----29.91+0.03---- 5.9-
2024-06-23 09:54 am NE 7.0 12.0----29.91----- 5.9-
2024-06-23 09:48 amNNE 8.9 12.0----29.91- 84.7 86.5 79.9- 5.9-
2024-06-23 09:42 amNNE 7.0 9.9----29.91- 84.6 86.5 80.6- 5.9-
2024-06-23 09:36 amNNE 7.0 8.9----29.91- 83.8 86.4 80.2- 5.9-
2024-06-23 09:30 amNNE 7.0 9.9----29.91- 83.8 86.4 81.0- 5.9-
2024-06-23 09:24 amNNE 8.9 12.0----29.91- 83.3 86.4 80.6- 5.9-
2024-06-23 09:18 amNNE 9.9 13.0----29.91-- 86.5-- 5.9-
2024-06-23 09:12 amNNE 8.9 13.0----29.91-- 86.4-- 5.9-
2024-06-23 09:06 amNNE 8.0 11.1----29.91-- 86.2-- 5.9-
2024-06-23 09:00 amNNE 7.0 9.9------ 82.9 86.5 81.1- 5.9-
2024-06-23 08:54 amNNE 7.0 11.1------ 82.2 86.5 80.6- 5.9-
2024-06-23 08:48 am N 7.0 8.9----29.91- 82.0 86.2 80.6- 5.9-
2024-06-23 08:42 am N 7.0 8.9----29.91- 81.9 86.4 80.8- 5.9-
2024-06-23 08:36 amNNE 6.0 9.9----29.91- 81.7 86.4 81.0- 5.9-
2024-06-23 08:30 amNNE 7.0 9.9----29.91-- 86.4-- 5.9-
2024-06-23 08:24 amNNE 8.0 11.1----29.91-- 86.4-- 5.9-
2024-06-23 08:18 amNNE 5.1 9.9----29.91- 81.1 86.2 81.1- 5.9-
2024-06-23 08:12 amNNE 5.1 8.9----29.90- 81.0 86.5 81.0- 5.9-
2024-06-23 08:06 amNNE 6.0 8.9----29.90- 80.8 86.4 80.8- 5.9-
2024-06-23 08:00 am N 7.0 8.9------- 86.5-- 5.9-
2024-06-23 07:54 am N 6.0 8.9------- 86.4-- 5.9-
2024-06-23 07:48 am N 7.0 8.9----29.90- 80.2 86.2 80.2- 5.9-
2024-06-23 07:42 am N 7.0 9.9----29.90- 80.1 86.4 80.1- 5.9-
2024-06-23 07:36 am N 8.0 9.9----29.89- 79.7 86.4 79.7- 5.9-
2024-06-23 07:30 am N 7.0 9.9----29.89- 79.5 86.4 79.5- 5.9-
2024-06-23 07:24 am N 8.0 8.9----29.89- 79.5 86.4 79.5- 5.9-
2024-06-23 07:18 am N 7.0 8.0----29.89- 79.5 86.5 79.5- 5.9-
2024-06-23 07:12 am N 7.0 8.9----29.89- 79.7 86.5 79.7- 5.9-
2024-06-23 07:06 am N 6.0 7.0----29.88- 79.7 86.5 79.7- 5.9-
2024-06-23 07:00 am N 5.1 8.0----29.88+0.00- 86.4-- 5.9-
2024-06-23 06:54 am N 6.0 8.0----29.88-- 86.5-- 5.9-
2024-06-23 06:48 amNNE 5.1 7.0----29.88- 79.5 86.5 79.5- 5.9-
2024-06-23 06:42 am N 5.1 8.0----29.88- 79.5 86.5 79.5- 5.9-
2024-06-23 06:36 amNNE 5.1 7.0----29.88- 79.3 86.5 79.3- 5.9-
2024-06-23 06:30 amNNE 4.1 7.0----29.88- 79.2 86.5 79.2- 5.9-
2024-06-23 06:24 amNNE 5.1 8.0----29.88- 79.2 86.5 79.2- 5.9-
2024-06-23 06:18 amNNE 5.1 6.0----29.88-- 86.4-- 5.9-
2024-06-23 06:12 amNNE 5.1 7.0----29.87-- 86.4-- 5.9-
2024-06-23 06:06 am N 4.1 7.0----29.87-- 86.4-- 5.9-
2024-06-23 06:00 am N 5.1 7.0------ 79.2 86.4 79.2- 5.9-
2024-06-23 05:54 am N 5.1 7.0------ 79.2 86.4 79.2- 5.9-
2024-06-23 05:48 am N 5.1 6.0----29.88- 79.3 86.4 79.3- 5.9-
2024-06-23 05:42 amNNE 4.1 5.1----29.88- 79.3 86.5 79.3- 5.9-
2024-06-23 05:36 amNNE 4.1 6.0----29.87- 79.3 86.5 79.3- 5.9-
2024-06-23 05:30 amNNE 5.1 7.0----29.87- 79.2 86.5 79.2- 5.9-
2024-06-23 05:24 am N 4.1 6.0----29.87- 79.5 86.5 79.5- 5.9-
2024-06-23 05:18 am N 5.1 6.0----29.88- 79.3 86.4 79.3- 5.9-
2024-06-23 05:12 am N 5.1 7.0----29.88- 79.3 86.4 79.3- 5.9-
2024-06-23 05:06 amNNE 4.1 6.0----29.88- 79.3 86.5 79.3- 5.9-
2024-06-23 05:00 amNNE 5.1 7.0----29.88-0.03- 86.5-- 5.9-
2024-06-23 04:54 amNNE 4.1 7.0----29.88-- 86.5-- 5.9-
2024-06-23 04:48 amNNE 6.0 8.0----29.87- 79.2 86.5 79.2- 5.9-
2024-06-23 04:42 amNNE 5.1 8.0----29.87- 79.2 86.5 79.2- 5.9-
2024-06-23 04:36 amNNE 5.1 7.0----29.87- 79.3 86.5 79.3- 5.9-
2024-06-23 04:30 amNNE 4.1 6.0----29.87- 79.2 86.5 79.2- 5.9-
2024-06-23 04:24 amNNE 5.1 6.0----29.87- 79.3 86.5 79.3- 5.9-
2024-06-23 04:18 amNNE 4.1 7.0----29.88- 79.7 86.5 79.7- 5.9-
2024-06-23 04:12 amNNE 5.1 6.0----29.88- 79.7 86.5 79.7- 5.9-
2024-06-23 04:06 amNNE 4.1 7.0----29.88- 79.9 86.5 79.7- 5.9-
2024-06-23 04:00 amNNE 4.1 6.0----29.88- 79.9 86.5 79.5- 5.9-
2024-06-23 03:54 amNNE 4.1 6.0----29.88- 80.2 86.4 79.7- 5.9-
2024-06-23 03:48 amNNE 6.0 8.0----29.88- 80.2 86.4 79.7- 5.9-
2024-06-23 03:42 am NE 6.0 7.0----29.88- 80.2 86.4 79.7- 5.9-
2024-06-23 03:36 am NE 5.1 7.0----29.88- 80.2 86.4 79.5- 5.9-
2024-06-23 03:30 am NE 5.1 6.0----29.88- 80.1 86.4 79.3- 5.9-
2024-06-23 03:24 am NE 4.1 6.0----29.88- 80.1 86.4 79.2- 5.9-
2024-06-23 03:18 am NE 4.1 6.0----29.88- 80.2 86.4 79.3- 5.9-
2024-06-23 03:12 am NE 4.1 6.0----29.88- 80.6 86.5 79.5- 5.9-
2024-06-23 03:06 am NE 6.0 8.0----29.88- 80.6 86.4 79.3- 5.9-
2024-06-23 03:00 am NE 6.0 9.9----29.89-0.04 80.4 86.4 79.2- 5.9-
2024-06-23 02:54 am NE 7.0 8.9----29.88- 80.4 86.4 79.2- 5.9-
2024-06-23 02:48 am NE 6.0 8.0----29.89- 80.4 86.4 79.2- 5.9-
2024-06-23 02:42 am NE 5.1 8.0----29.89- 80.6 86.4 79.3- 5.9-
2024-06-23 02:36 am NE 6.0 8.9----29.89- 80.4 86.4 79.2- 5.9-
2024-06-23 02:30 am NE 6.0 8.0----29.89- 80.2 86.4 79.0- 5.9-
2024-06-23 02:24 amNNE 6.0 8.0----29.90- 80.4 86.4 79.0- 5.9-
2024-06-23 02:18 am NE 6.0 8.0----29.90- 80.4 86.4 78.8- 5.9-
2024-06-23 02:12 am NE 6.0 7.0----29.90- 80.4 86.4 78.6- 5.9-
2024-06-23 02:06 am NE 6.0 7.0----29.90- 80.4 86.4 78.6- 5.9-
2024-06-23 02:00 am NE 6.0 8.0----29.90-0.04 80.6 86.4 78.8- 5.9-
2024-06-23 01:54 am NE 6.0 7.0----29.90- 80.4 86.4 78.4- 5.9-